Find Kosmos-1066

NORAD ID: 11165 Int'l Des: 1978-121 Owner: MOM/VNIEM Country: SU operational
LEOCIRCULARPOLAR

Live-Position

3D-Globus wird geladen...

Über Kosmos-1066

Beschreibung wird geladen...

Nächste Überflüge

Passes for default location (London). Set your location on the main map for personalized predictions.

Höhenverlauf

Loading altitude history...

Zweizeiliger Elementsatz

1 11165U 78121A 26106.03847376 .00000151 00000-0 74901-4 0 9998
2 11165 81.2365 316.5075 0048278 272.6575 86.9072 14.12095736952557
Epoch: 16. Apr. 2026 • Age: 16 hours

Aktueller Status

Höhe 844.8 km
Geschwindigkeit 7.44 km/s
Subsatellitenpunkt -48.05°S, 41.12°E
Startdatum 23. Dez. 1978
Alter 47.3 years
Typ other

Technische Details

Klassifizierung Payload
Masse 1200.00 kg
Trockenmasse 1200.00 kg
Gesamtmasse 1200.00 kg
Länge 4.50 m
Durchmesser 1.40 m
Spannweite 4.50 m
Form Cyl + 2 Pan
Hersteller VNIEM
Bus-Typ Astrofizika
Phasenstatus In Orbit
Besitzer/Staat MOM/VNIEM/SU

Most Searched